Total_Precipitation_Accumulation
1.47 1.52 1.62 1.83 2.02 2.04 1.97 1.80 1.63 1.60 1.56 1.50 1.50 1.54 1.53 1.48 1.48 1.58 1.56 1.49 1.53 1.55 1.56 1.57 1.57 1.57 1.59 1.52 1.51 1.53 1.50 1.59 1.62 1.06 0.89 0.94 1.14 1.23 1.23 1.19 1.25 1.30 1.30
1.42 1.46 1.52 1.60 1.77 1.99 1.92 1.75 1.58 1.54 1.54 1.51 1.45 1.46 1.48 1.49 1.51 1.54 1.53 1.46 1.45 1.47 1.50 1.50 1.49 1.50 1.54 1.48 1.45 1.42 1.36 1.32 1.40 1.23 0.98 0.97 1.07 1.15 1.25 1.33 1.32 1.32 1.26
1.36 1.45 1.44 1.49 1.58 1.70 1.80 1.72 1.59 1.51 1.50 1.51 1.49 1.45 1.47 1.51 1.53 1.48 1.50 1.46 1.40 1.39 1.41 1.43 1.41 1.47 1.54 1.47 1.45 1.38 1.28 1.20 1.22 1.26 1.09 1.01 1.06 1.11 1.29 1.45 1.45 1.46 1.39
1.25 1.33 1.35 1.35 1.40 1.46 1.55 1.71 1.70 1.58 1.47 1.42 1.41 1.44 1.52 1.66 1.72 1.69 1.72 1.58 1.46 1.40 1.35 1.31 1.33 1.46 1.52 1.55 1.59 1.47 1.39 1.40 1.40 1.44 1.32 1.19 1.19 1.20 1.39 1.65 1.76 1.71 1.63
1.12 1.20 1.28 1.32 1.39 1.42 1.38 1.48 1.67 1.63 1.47 1.38 1.36 1.42 1.52 1.87 2.26 2.26 2.16 1.86 1.55 1.39 1.30 1.27 1.33 1.49 1.56 1.75 1.89 1.77 1.75 1.85 1.81 1.79 1.66 1.55 1.47 1.49 1.57 1.61 1.79 1.83 1.82
1.01 1.13 1.22 1.31 1.44 1.44 1.37 1.42 1.55 1.64 1.57 1.46 1.39 1.40 1.45 1.74 2.46 2.61 2.23 1.74 1.52 1.39 1.32 1.26 1.28 1.43 1.47 1.60 1.81 1.91 1.98 2.12 2.20 2.16 2.03 1.86 1.59 1.48 1.51 1.66 1.77 1.98 2.07
0.98 1.05 1.14 1.21 1.36 1.42 1.39 1.46 1.51 1.59 1.67 1.66 1.50 1.38 1.34 1.54 2.25 2.43 2.15 1.68 1.48 1.39 1.32 1.31 1.31 1.35 1.44 1.40 1.53 1.62 1.67 1.83 2.06 2.19 2.24 1.82 1.57 1.49 1.72 1.93 1.89 1.97 1.93
1.03 1.06 1.12 1.15 1.20 1.33 1.43 1.44 1.46 1.50 1.55 1.62 1.57 1.46 1.34 1.42 2.01 2.22 2.05 1.68 1.53 1.43 1.33 1.30 1.30 1.31 1.41 1.64 1.60 1.55 1.45 1.47 1.67 1.87 2.14 1.97 1.76 1.80 2.15 2.48 2.56 2.43 2.01
1.11 1.11 1.10 1.07 1.12 1.24 1.33 1.41 1.44 1.46 1.43 1.45 1.44 1.44 1.40 1.39 1.77 2.07 1.91 1.58 1.53 1.44 1.32 1.29 1.30 1.29 1.57 1.87 1.77 1.61 1.42 1.32 1.44 1.77 2.09 2.23 2.28 2.42 2.66 2.98 3.14 2.97 2.48
1.09 1.13 1.05 0.97 0.97 1.01 1.12 1.30 1.40 1.41 1.35 1.36 1.37 1.37 1.31 1.26 1.56 1.88 1.88 1.54 1.45 1.38 1.32 1.28 1.44 1.53 1.74 1.89 1.72 1.68 1.76 1.50 1.34 1.41 1.51 1.63 1.69 1.85 2.26 2.54 2.87 2.99 2.61
1.06 1.13 1.04 0.96 0.95 0.96 1.03 1.21 1.34 1.41 1.38 1.32 1.28 1.29 1.24 1.23 1.38 1.61 1.85 1.63 1.46 1.39 1.36 1.31 1.30 1.59 1.70 1.79 1.82 1.74 1.98 1.85 1.56 1.56 1.54 1.49 1.46 1.56 1.75 2.05 2.48 2.88 2.93
1.07 1.08 1.06 1.04 1.00 1.01 1.05 1.19 1.32 1.40 1.45 1.39 1.29 1.26 1.24 1.24 1.34 1.50 1.71 1.75 1.63 1.41 1.30 1.17 1.24 1.52 1.61 1.73 1.72 1.82 1.95 1.87 1.66 1.60 1.52 1.45 1.44 1.49 1.56 1.71 2.05 2.35 2.51
1.04 1.08 1.09 1.10 1.07 1.09 1.12 1.21 1.33 1.40 1.44 1.41 1.32 1.25 1.23 1.18 1.33 1.61 1.56 1.62 1.67 1.45 1.30 1.40 1.48 1.61 1.61 1.52 1.60 1.70 1.70 1.61 1.68 1.69 1.52 1.40 1.39 1.50 1.58 1.63 1.79 2.08 2.26
0.93 1.04 1.05 1.08 1.14 1.19 1.21 1.22 1.31 1.40 1.46 1.36 1.29 1.21 1.15 1.17 1.38 1.56 1.52 1.50 1.60 1.57 1.50 1.56 1.64 1.62 1.52 1.41 1.45 1.45 1.39 1.49 1.65 1.64 1.48 1.33 1.31 1.44 1.62 1.72 1.83 1.98 2.21
0.86 0.99 1.09 1.12 1.17 1.23 1.25 1.26 1.33 1.33 1.49 1.46 1.31 1.23 1.25 1.35 1.54 1.69 1.65 1.58 1.59 1.59 1.67 1.74 1.67 1.59 1.55 1.43 1.31 1.24 1.28 1.45 1.57 1.46 1.42 1.39 1.37 1.41 1.50 1.62 1.85 2.00 2.16
0.87 0.94 1.07 1.15 1.15 1.15 1.16 1.21 1.37 1.40 1.44 1.40 1.33 1.29 1.22 1.38 1.55 1.62 1.71 1.74 1.77 1.84 1.87 1.77 1.55 1.41 1.37 1.32 1.30 1.27 1.21 1.24 1.31 1.38 1.41 1.42 1.42 1.45 1.47 1.48 1.67 1.93 2.09
0.87 0.92 1.01 1.09 1.09 1.05 1.04 1.05 1.16 1.33 1.44 1.42 1.38 1.32 1.30 1.39 1.45 1.53 1.67 1.78 1.84 1.84 1.75 1.53 1.33 1.25 1.23 1.21 1.21 1.19 1.17 1.10 1.14 1.26 1.30 1.35 1.41 1.46 1.50 1.51 1.56 1.72 1.91
0.85 0.96 1.00 1.03 1.05 1.04 1.03 1.02 1.03 1.13 1.28 1.36 1.38 1.34 1.31 1.35 1.41 1.51 1.67 1.79 1.85 1.68 1.46 1.38 1.29 1.20 1.17 1.21 1.23 1.22 1.18 1.16 1.19 1.22 1.25 1.26 1.35 1.47 1.51 1.49 1.49 1.63 1.79
0.91 0.96 0.95 0.99 1.03 1.05 1.06 1.08 1.10 1.12 1.16 1.22 1.28 1.42 1.50 1.48 1.50 1.57 1.60 1.55 1.49 1.38 1.30 1.28 1.24 1.23 1.21 1.22 1.25 1.27 1.27 1.25 1.22 1.23 1.23 1.22 1.25 1.37 1.41 1.35 1.38 1.52 1.71
0.95 1.07 1.03 1.02 1.05 1.07 1.08 1.14 1.20 1.23 1.23 1.20 1.22 1.33 1.54 1.70 1.68 1.65 1.52 1.41 1.38 1.26 1.21 1.25 1.26 1.25 1.26 1.27 1.29 1.30 1.30 1.25 1.22 1.22 1.19 1.18 1.20 1.26 1.30 1.31 1.37 1.46 1.53
0.90 1.01 1.09 1.05 1.03 1.05 1.09 1.13 1.19 1.26 1.27 1.19 1.14 1.24 1.53 1.65 1.55 1.40 1.35 1.36 1.42 1.40 1.32 1.31 1.29 1.28 1.27 1.30 1.32 1.30 1.27 1.20 1.14 1.15 1.15 1.15 1.20 1.25 1.23 1.26 1.32 1.39 1.47
0.90 0.96 0.98 1.00 1.02 1.08 1.13 1.14 1.20 1.26 1.25 1.21 1.18 1.26 1.43 1.37 1.36 1.33 1.30 1.30 1.36 1.43 1.43 1.43 1.39 1.32 1.32 1.37 1.41 1.40 1.29 1.15 1.07 1.09 1.13 1.13 1.15 1.18 1.22 1.25 1.24 1.31 1.41
0.96 1.00 1.01 1.00 1.01 1.13 1.20 1.17 1.19 1.23 1.26 1.25 1.24 1.26 1.29 1.29 1.29 1.33 1.36 1.36 1.41 1.42 1.37 1.38 1.37 1.30 1.23 1.24 1.28 1.38 1.38 1.21 1.10 1.14 1.23 1.22 1.18 1.18 1.22 1.25 1.22 1.26 1.33
0.99 1.04 1.04 1.02 1.03 1.07 1.13 1.17 1.18 1.20 1.24 1.27 1.28 1.29 1.30 1.29 1.28 1.31 1.37 1.43 1.47 1.43 1.36 1.35 1.31 1.26 1.19 1.17 1.14 1.15 1.17 1.21 1.27 1.27 1.27 1.30 1.24 1.18 1.21 1.24 1.21 1.23 1.31
1.01 1.02 1.04 1.04 1.06 1.08 1.13 1.16 1.17 1.19 1.21 1.24 1.26 1.29 1.30 1.30 1.31 1.31 1.33 1.35 1.37 1.35 1.29 1.27 1.26 1.26 1.21 1.15 1.10 1.08 1.19 1.29 1.37 1.47 1.49 1.42 1.29 1.21 1.23 1.23 1.19 1.21 1.27
0.96 0.97 1.01 1.05 1.09 1.11 1.17 1.23 1.20 1.18 1.23 1.24 1.24 1.28 1.30 1.32 1.31 1.26 1.23 1.24 1.27 1.24 1.19 1.18 1.16 1.19 1.18 1.17 1.15 1.22 1.31 1.28 1.30 1.40 1.52 1.52 1.34 1.18 1.19 1.23 1.17 1.20 1.24